GW3222 Weather Reports


Display with metric or nautical units.
time (UTC)temp
F
wind
direction
speed
MPH
gust
MPH
rain 1hr
in
rain 24hr
in
rain mn
in
humidity
%
barometer
mb
20260504173054 78 249 3.0 9.0 0.00 0.00 0.00 38 1016.8
20260504171554 78 262 2.0 10.0 0.00 0.00 0.00 42 1016.9
20260504140107 65 263 1.0 4.0 0.00 0.00 0.00 80 1018.2
20260504120108 48 0 0.0 2.0 0.00 0.00 0.00 96 1018.1
20260504110104 46 0 0.0 1.0 0.00 0.00 0.00 96 1017.4
20260504081551 49 0 0.0 1.0 0.00 0.00 0.00 95 1018.0
20260504044554 53 311 0.0 2.0 0.00 0.00 0.00 93 1019.1
20260504043057 53 311 0.0 4.0 0.00 0.00 0.00 93 1019.2
20260504041556 53 12 0.0 2.0 0.00 0.00 0.00 93 1019.2
20260504040058 54 0 0.0 3.0 0.00 0.00 0.00 92 1019.2
20260504034550 55 272 1.0 2.0 0.00 0.00 0.00 92 1019.3
20260504033104 55 277 0.0 2.0 0.00 0.00 0.00 92 1019.1
20260504031601 56 357 0.0 2.0 0.00 0.00 0.00 91 1019.0
20260504030051 56 357 0.0 2.0 0.00 0.00 0.00 91 1018.9
20260504024601 57 0 0.0 2.0 0.00 0.00 0.00 89 1018.9
20260504023056 58 0 0.0 1.0 0.00 0.00 0.00 89 1018.8
20260504021557 58 357 1.0 2.0 0.00 0.00 0.00 88 1018.8
20260504020052 59 0 0.0 1.0 0.00 0.00 0.00 86 1018.7
20260504014552 60 0 0.0 2.0 0.00 0.00 0.00 84 1018.5
20260504013104 61 34 0.0 2.0 0.00 0.00 0.00 81 1018.3
20260504011553 62 34 1.0 2.0 0.00 0.00 0.00 78 1018.1
20260504010057 64 0 0.0 0.0 0.00 0.00 0.00 74 1018.1
20260504004601 65 0 0.0 1.0 0.00 0.00 0.00 70 1018.0
20260504003100 67 0 0.0 1.0 0.00 0.00 0.00 68 1017.8
20260504001554 69 72 0.0 1.0 0.00 0.00 0.00 63 1017.8
20260504000054 70 0 0.0 2.0 0.00 0.00 0.00 54 1017.9
20260503234552 72 50 0.0 3.0 0.00 0.00 0.00 50 1017.9
20260503233055 73 0 0.0 5.0 0.00 0.00 0.00 46 1018.0
20260503231555 74 224 2.0 8.0 0.00 0.00 0.00 43 1017.9
20260503230054 74 189 1.0 4.0 0.00 0.00 0.00 42 1017.8
20260503224551 75 335 1.0 4.0 0.00 0.00 0.00 44 1017.9
20260503223057 76 285 4.0 10.0 0.00 0.00 0.00 42 1017.9
20260503221558 77 266 3.0 9.0 0.00 0.00 0.00 40 1018.0
20260503214551 77 264 1.0 12.0 0.00 0.00 0.00 40 1018.3
20260503213052 77 265 3.0 9.0 0.00 0.00 0.00 42 1018.3
20260503211600 76 0 5.0 10.0 0.00 0.00 0.00 41 1018.5
20260503210054 76 38 1.0 6.0 0.00 0.00 0.00 41 1018.8
20260503204551 77 245 2.0 10.0 0.00 0.00 0.00 42 1019.0
20260503203053 77 355 2.0 8.0 0.00 0.00 0.00 44 1019.3
20260503201556 77 322 2.0 10.0 0.00 0.00 0.00 40 1019.5
20260503200053 76 311 5.0 10.0 0.00 0.00 0.00 41 1019.7
20260503194553 76 332 3.0 12.0 0.00 0.00 0.00 43 1020.1
20260503193056 76 238 5.0 14.0 0.00 0.00 0.00 41 1020.5
20260503191554 76 293 2.0 9.0 0.00 0.00 0.00 39 1020.6
20260503190055 75 35 1.0 6.0 0.00 0.00 0.00 46 1020.8
20260503184606 75 304 2.0 8.0 0.00 0.00 0.00 41 1020.9
20260503183057 75 330 3.0 10.0 0.00 0.00 0.00 41 1021.2
20260503181552 76 5 5.0 14.0 0.00 0.00 0.00 42 1021.4
20260503180054 75 289 4.0 12.0 0.00 0.00 0.00 44 1021.4
20260503174606 74 107 2.0 12.0 0.00 0.00 0.00 44 1021.7